Regional Weather Roundup
Issued by NWS Nashville, TN

Home | Current Version | Previous Version | Text Only | Print | Product List | Glossary On
Versions: 1 2 3 4 5 6 7 8 9 10 11 12 13 14 15 16 17 18 19 20 21 22 23 24 25 26 27 28 29 30 31 32 33 34 35 36 37 38 39 40 41 42 43 44 45 46 47 48 49 50
000
ASUS44 KOHX 231010
RWROHX
MIDDLE TENNESSEE HOURLY WEATHER ROUNDUP
NATIONAL WEATHER SERVICE NASHVILLE TN
500 AM CDT SAT AUG 23 2014

NOTE: "FAIR" INDICATES FEW OR NO CLOUDS BELOW 12,000 FEET WITH
NO SIGNIFICANT WEATHER AND/OR OBSTRUCTIONS TO VISIBILITY.

* THESE REPORTS ARE NOT UNDER NWS QUALITY CONTROL AND MAY NOT
  REPORT WEATHER SUCH AS PRECIPITATION AND FOG.


TNZ005>011-023>034-057-059-062>066-078-080-231100
...NORTHERN MIDDLE TENNESSEE...

CITY           SKY/WX    TMP DP  RH WIND       PRES   REMARKS
CLARKSVILLE    MOCLDY    75  70  84 E7        30.01F
CROSSVILLE     PTCLDY    71  68  90 W3        30.07S FOG
GALLATIN         N/A     76  76 100 CALM      30.01R
DICKSON        MOCLDY    73  72  94 CALM      30.02R
LEBANON        PTCLDY    74  71  90 CALM      29.99S
LIVINGSTON     PTCLDY    73  71  93 SW6       30.03S
NASHVILLE      PTCLDY    76  74  93 W3        30.00S
WEST NASHVILLE   N/A     73  73 100 CALM      30.00S
PORTLAND       PTCLDY    75  73  94 W5        30.01R
SMYRNA         PTCLDY    73  72  97 CALM      30.01R
SPARTA         CLEAR     72  72 100 CALM      30.02R
$$
TNZ056-058-060-061-075>077-079-093>097-231100
...SOUTHERN MIDDLE TENNESSEE...

CITY           SKY/WX    TMP DP  RH WIND       PRES   REMARKS
COLUMBIA       CLEAR     73  73 100 CALM      30.00R
FAYETTEVILLE   CLEAR     70  70 100 CALM      30.03R
LEWISBURG      PTCLDY    71  69  93 CALM      30.01R
MCMINNVILLE    CLEAR     72  72 100 CALM      30.03R
MURFREESBORO   PTCLDY    74  71  90 CALM      30.00R
SHELBYVILLE    CLEAR     72  72 100 CALM      30.03R
TULLAHOMA      CLEAR     70  66  88 CALM      30.04R
WINCHESTER     CLEAR     72  70  94 CALM      30.03R
$$


...KEY TO REMARKS...
VSB - VISIBILITY IN MILES
WCI - WIND CHILL INDEX
HX  - HEAT INDEX




USA.gov is the U.S. government's official web portal to all federal, state and local government web resources and services.